Flag for Germany Weather past 2 weeks in Ingolstadt, Bavaria, Germany

Now
39 °F

Chilly.


Feels Like: 33 °F
Forecast: 45 / 52 °F
Wind: 9 mph from West

Location: Ingolstadt Airport

Current Time: Mar 28, 2015 at 5:31:05 AM

Latest Report: Mar 28, 2015 at 4:20 AM


Visibility: 4 mi

Pressure: 30.21 "Hg

Humidity: 75%

Dew point: 32 °F

Location of IngolstadtLocation

Historic Weather in Ingolstadt — Graph

°F

Ingolstadt temperature yesterday

Maximum temperature yesterday: 48 °F (at 3:20 PM)
Minimum temperature yesterday: 39 °F (at 2:20 AM)
Average temperature yesterday: 43 °F

Past Weeks' High & Low Weather Summary

 TemperatureHumidityPressure
High63 °F (Mar 17, 2:20 PM)100% (Mar 19, 6:20 AM)30.27 "Hg (Mar 19, 6:20 AM)
Low27 °F (Mar 20, 6:20 AM)31% (Mar 19, 5:20 PM)29.56 "Hg (Mar 25, 1:20 PM)
Average43 °F71%30.05 "Hg
* Reported Mar 13 3:20 AM — Mar 28 3:20 AM, Ingolstadt, Weather by CustomWeather, © 2015

Note: Actual official high and low records may vary slightly from our data, if they occured in-between our weather recording intervals... More about our weather records

Advertising

Ingolstadt weather history for previous 24 hours

 ConditionsComfort  
Time TempWeatherWind HumidityBarometerVisibility
3:20 AM
Sat, Mar 28
36 °FChilly.6 mph81%30.21 "Hg4 mi
2:20 AM39 °FChilly.7 mph75%30.21 "Hg4 mi
1:20 AM41 °FQuite cool.8 mph76%30.21 "Hg4 mi
12:20 AM43 °FQuite cool.8 mph71%30.21 "Hg4 mi
11:20 PM
Fri, Mar 27
41 °FPassing clouds.5 mph76%30.21 "HgN/A
10:20 PM43 °FQuite cool.6 mph71%30.18 "Hg4 mi
9:20 PM41 °FPassing clouds.5 mph76%30.18 "HgN/A
8:20 PM45 °FPassing clouds.7 mph61%30.15 "HgN/A
7:20 PM45 °FPassing clouds.8 mph61%30.15 "HgN/A
6:20 PM46 °FBroken clouds.12 mph57%30.12 "HgN/A
5:20 PM45 °FPartly sunny.8 mph61%30.09 "HgN/A
4:20 PM48 °FPartly sunny.14 mph50%30.07 "HgN/A
3:20 PM48 °FScattered clouds.15 mph50%30.07 "HgN/A
2:20 PM46 °FScattered clouds.15 mph57%30.04 "HgN/A
2:00 PM43 °FPartly sunny.10 mph71%30.04 "HgN/A
1:20 PM46 °FBroken clouds.12 mph62%30.04 "HgN/A
12:20 PM46 °FPartly sunny.12 mph53%30.04 "HgN/A
11:20 AM45 °FBroken clouds.16 mph66%30.04 "HgN/A
10:20 AM45 °FScattered clouds.13 mph81%30.01 "HgN/A
9:20 AM41 °FLight rain. More clouds than sun.10 mph93%30.01 "Hg5 mi
8:20 AM41 °FRain. Fog.10 mph87%30.01 "Hg3 mi
7:20 AM41 °FLight rain. Partly sunny.8 mph87%29.98 "HgN/A
6:20 AM41 °FPartly sunny.12 mph87%29.95 "HgN/A
5:20 AM41 °FDrizzle. Overcast.12 mph87%29.92 "HgN/A
Weather by CustomWeather, © 2015

See weather overviewHow to use our weather pages